Weather reports worldwide

Advertisment
Castlederg, United Kingdom (3904): temperature & dewpoint: 30.06.2020 06:00:00 - 06.07.2020 06:00:00 (BST)Castlederg, United Kingdom (3904): temperature -20cm: 30.06.2020 06:00:00 - 06.07.2020 06:00:00 (BST)Castlederg, United Kingdom (3904): wind speed & gusts: 30.06.2020 06:00:00 - 06.07.2020 06:00:00 (BST)Castlederg, United Kingdom (3904): wind direction: 30.06.2020 06:00:00 - 06.07.2020 06:00:00 (BST)Castlederg, United Kingdom (3904): reduced air pressure: 30.06.2020 06:00:00 - 06.07.2020 06:00:00 (BST)Castlederg, United Kingdom (3904): visibility: 30.06.2020 06:00:00 - 06.07.2020 06:00:00 (BST)Castlederg, United Kingdom (3904): precipitation: 30.06.2020 06:00:00 - 06.07.2020 06:00:00 (BST)
Date & Time tt [°C] td [°C] tt -20cm [°C] ff [km/h] ff [kn] fx [km/h] fx [kn] dd ppp [hPa] vv [km] rr [mm]
06.07.2020 06:00:00 11,3 9,7 - 9 5 - - WNW 1016,9 15 0,2
06.07.2020 05:00:00 11,3 10,1 - 11 6 - - W 1015,5 9 0,2
06.07.2020 04:00:00 11,3 10,2 - 13 7 - - W 1014,4 6 0,4
06.07.2020 03:00:00 11,3 9,5 - 15 8 - - W 1013,6 10 0,0
06.07.2020 02:00:00 11,1 8,4 - 15 8 - - WSW 1013,0 21 0,0
06.07.2020 01:00:00 11,1 8,8 - 11 6 - - WSW 1012,7 11 0,0
06.07.2020 00:00:00 11,2 8,9 - 18 10 - - WSW 1011,5 24 0,0
05.07.2020 23:00:00 10,9 8,6 - 18 10 - - WSW 1010,9 35 0,0
05.07.2020 22:00:00 10,8 8,2 - 15 8 - - WSW 1010,5 35 0,0
05.07.2020 21:00:00 11,3 9,4 - 18 10 - - WSW 1009,5 35 0,4
05.07.2020 20:00:00 12,4 9,6 - 21 11 - - W 1008,1 7 0,0
05.07.2020 19:00:00 13,7 10,0 - 21 11 54 29 W 1006,7 27 0,2
05.07.2020 18:00:00 13,1 9,4 - 28 15 54 29 W 1005,5 24 0,0
05.07.2020 17:00:00 12,4 10,7 - 18 10 50 27 W 1004,2 20 0,4
05.07.2020 16:00:00 11,6 9,4 - 28 15 57 31 WSW 1002,9 30 1,4
05.07.2020 15:00:00 11,7 9,6 - 39 21 63 34 SW 1002,3 6 1,0
05.07.2020 14:00:00 13,4 9,9 - 46 25 74 40 SW 1001,7 15 0,0
05.07.2020 13:00:00 14,4 9,0 - 44 24 78 42 WSW 1002,2 12 0,0
05.07.2020 12:00:00 14,0 10,4 - 31 17 59 32 WSW 1002,5 12 0,2
05.07.2020 11:00:00 11,6 9,5 - 29 16 67 36 WSW 1002,9 28 0,2
05.07.2020 10:00:00 12,4 10,4 16,2 29 16 67 36 SW 1002,2 17 0,0
05.07.2020 09:00:00 11,6 9,7 - 29 16 55 30 WSW 1002,4 13 0,0
05.07.2020 08:00:00 10,9 9,9 - 24 13 - - SW 1002,2 16 0,8
05.07.2020 07:00:00 10,7 9,5 - 22 12 - - WSW 1002,2 5 0,4
05.07.2020 06:00:00 10,0 7,7 - 18 10 - - WSW 1002,0 25 0,0
05.07.2020 05:00:00 10,5 8,1 - 16 9 - - W 1001,3 40 0,0
05.07.2020 04:00:00 11,0 8,5 - 18 10 46 25 WSW 1000,4 45 0,0
05.07.2020 03:00:00 11,4 9,0 - 34 18 57 31 WSW 999,3 45 0,0
05.07.2020 02:00:00 12,4 11,1 - 31 17 54 29 WSW 997,6 11 0,0
05.07.2020 01:00:00 13,1 12,6 - 26 14 57 31 WSW 996,7 21 0,2
05.07.2020 00:00:00 13,9 13,5 - 28 15 55 30 WSW 995,6 5 0,4
04.07.2020 23:00:00 14,7 14,4 - 28 15 - - SW 994,4 4,7 0,6
04.07.2020 22:00:00 14,4 14,0 - 21 11 - - SSW 994,7 4,4 0,4
04.07.2020 21:00:00 14,5 13,8 - 22 12 - - SSW 995,5 5 0,4
04.07.2020 20:00:00 14,8 14,1 - 16 9 - - SSW 996,9 6 0,8
04.07.2020 19:00:00 15,3 14,4 - 21 11 - - SSW 998,2 9 0,8
04.07.2020 18:00:00 15,7 14,9 - 15 8 - - S 999,9 5 0,2
04.07.2020 17:00:00 15,9 13,9 - 11 6 - - S 1001,5 7 0,0
04.07.2020 16:00:00 16,5 13,3 - 8 4 - - WSW 1002,7 50 0,0
04.07.2020 15:00:00 16,8 13,6 - 8 4 - - SW 1003,3 40 0,0
04.07.2020 14:00:00 15,6 13,0 - 9 5 - - WSW 1004,0 45 0,0
04.07.2020 13:00:00 15,2 13,8 - 11 6 - - SW 1004,4 11 0,0
04.07.2020 12:00:00 14,5 12,5 - 8 4 - - WSW 1004,3 50 0,0
04.07.2020 11:00:00 13,6 12,0 - 11 6 - - WSW 1004,6 22 0,0
04.07.2020 10:00:00 13,2 11,5 16,2 9 5 - - WSW 1004,3 45 0,0
04.07.2020 09:00:00 13,1 12,4 - 11 6 - - SW 1004,1 35 0,0
04.07.2020 08:00:00 12,1 11,8 - 5 3 - - S 1004,0 40 0,0
04.07.2020 07:00:00 11,7 11,6 - 5 3 - - WSW 1004,2 30 0,0
04.07.2020 06:00:00 11,3 11,1 - 2 1 - - ESE 1003,9 9 0,0
04.07.2020 05:00:00 11,2 11,0 - 2 1 - - WNW 1004,0 3,4 0,2
04.07.2020 04:00:00 11,6 11,4 - 4 2 - - W 1004,2 3,5 0,2
04.07.2020 03:00:00 11,7 11,5 - 2 1 - - NW 1003,8 1,7 0,2
04.07.2020 02:00:00 11,7 11,4 - 4 2 - - E 1003,7 3,8 0,4
04.07.2020 01:00:00 11,7 11,4 - 4 2 57 31 NE 1004,0 5 0,0
04.07.2020 00:00:00 11,9 11,5 - 2 1 - - ENE 1004,4 14 0,0
03.07.2020 23:00:00 12,0 11,5 - 4 2 - - ENE 1004,3 4,9 0,8
03.07.2020 22:00:00 12,3 11,7 - 2 1 - - ESE 1004,1 5 0,6
03.07.2020 21:00:00 12,4 11,9 - 4 2 - - N 1004,2 9 0,8
03.07.2020 20:00:00 12,5 11,8 - 4 2 - - WNW 1004,6 3,8 1,0
03.07.2020 19:00:00 12,5 11,8 - 5 3 - - NW 1004,2 9 0,6
03.07.2020 18:00:00 12,8 12,2 - 8 4 - - NW 1004,3 2,9 0,8
03.07.2020 17:00:00 13,2 12,4 - 5 3 - - NW 1003,9 4,7 0,6
03.07.2020 16:00:00 13,0 11,8 - 9 5 - - NW 1003,8 11 0,0
03.07.2020 15:00:00 14,3 13,7 - 16 9 - - WSW 1003,8 7 0,2
03.07.2020 14:00:00 15,0 14,4 - 15 8 - - WSW 1003,5 5 0,2
03.07.2020 13:00:00 14,9 14,3 - 15 8 - - SW 1003,7 8 0,2
03.07.2020 12:00:00 14,8 14,1 - 15 8 - - SW 1003,7 4,6 0,0
03.07.2020 11:00:00 14,9 14,6 - 15 8 - - SW 1003,4 5 0,2
03.07.2020 10:00:00 14,4 14,1 16,4 11 6 - - SW 1003,4 8 0,0
03.07.2020 09:00:00 14,1 13,9 - 18 10 - - SSW 1003,2 9 0,2
03.07.2020 08:00:00 13,8 13,5 - 18 10 - - SSW 1003,3 25 0,6
03.07.2020 07:00:00 13,4 13,1 - 22 12 - - SSW 1003,5 7 0,6
03.07.2020 06:00:00 12,7 12,4 - 21 11 - - SSW 1003,5 5 1,2
03.07.2020 05:00:00 11,9 11,4 - 18 10 - - S 1004,0 4,2 1,0
03.07.2020 04:00:00 11,3 10,6 - 21 11 - - S 1004,8 4,2 0,6
03.07.2020 03:00:00 10,8 10,0 - 15 8 - - S 1006,1 4,5 0,4
03.07.2020 02:00:00 10,6 9,6 - 15 8 - - S 1007,6 6 0,6
03.07.2020 01:00:00 10,9 10,2 - 9 5 - - S 1009,0 10 1,0
03.07.2020 00:00:00 10,9 9,7 - 13 7 - - S 1010,0 14 1,2
02.07.2020 23:00:00 11,0 9,1 - 4 2 - - SSE 1010,7 13 0,6
02.07.2020 22:00:00 11,8 7,9 - 5 3 - - SE 1011,2 14 0,0
02.07.2020 21:00:00 12,4 7,5 - 5 3 - - S 1012,1 40 0,0
02.07.2020 20:00:00 13,1 7,0 - 8 4 - - WSW 1012,6 50 0,0
02.07.2020 19:00:00 13,9 7,2 - 13 7 - - WSW 1012,6 45 0,0
02.07.2020 18:00:00 15,1 6,9 - 11 6 - - WSW 1012,3 40 0,0
02.07.2020 17:00:00 14,7 7,8 - 13 7 - - W 1012,8 35 0,0
02.07.2020 16:00:00 15,3 7,8 - 4 2 - - NNW 1012,8 30 0,0
02.07.2020 15:00:00 14,6 7,2 - 5 3 - - WSW 1012,9 27 0,0
02.07.2020 14:00:00 13,9 7,2 - 8 4 - - NW 1013,0 35 0,0
02.07.2020 13:00:00 13,5 6,7 - 5 3 - - WNW 1013,0 40 0,0
02.07.2020 12:00:00 12,4 7,2 - 8 4 - - WNW 1012,9 40 0,0
02.07.2020 11:00:00 12,8 8,3 - 8 4 - - N 1012,3 30 0,0
02.07.2020 10:00:00 12,0 7,6 16,2 8 4 - - NW 1012,2 20 0,0
02.07.2020 09:00:00 11,9 8,2 - 8 4 - - WNW 1011,7 27 0,0
02.07.2020 08:00:00 11,4 8,7 - 4 2 - - W 1011,2 21 0,0
02.07.2020 07:00:00 10,4 8,2 - 8 4 - - W 1010,8 23 0,0
02.07.2020 06:00:00 10,0 8,3 - 9 5 - - SW 1010,2 22 0,0
02.07.2020 05:00:00 10,2 8,6 - 5 3 - - WSW 1009,6 12 0,0
02.07.2020 04:00:00 10,4 9,0 - 5 3 - - WSW 1009,4 18 0,0
02.07.2020 03:00:00 10,9 9,2 - 5 3 - - WNW 1009,1 18 0,0
02.07.2020 02:00:00 10,9 9,6 - 5 3 - - WSW 1009,0 16 0,0
02.07.2020 01:00:00 11,4 9,9 - 5 3 - - W 1008,7 15 0,0
02.07.2020 00:00:00 11,5 10,2 - 5 3 - - W 1008,5 20 0,0
01.07.2020 23:00:00 12,1 10,3 - 5 3 - - N 1007,8 22 0,0
01.07.2020 22:00:00 13,3 10,3 - 5 3 - - NW 1007,2 50 0,0
01.07.2020 21:00:00 14,2 10,0 - 8 4 - - NNW 1006,7 45 0,0
01.07.2020 20:00:00 14,4 10,4 - 13 7 - - N 1006,2 30 0,0
01.07.2020 19:00:00 15,3 11,3 - 9 5 - - NNW 1005,7 30 0,0
01.07.2020 18:00:00 16,1 11,2 - 9 5 - - NW 1005,3 40 0,0
01.07.2020 17:00:00 15,7 12,0 - 5 3 - - NNW 1005,3 30 0,0
01.07.2020 16:00:00 15,8 13,4 - 8 4 - - WSW 1005,1 30 0,0
01.07.2020 15:00:00 15,0 12,3 - 8 4 - - W 1004,9 40 0,0
01.07.2020 14:00:00 15,3 12,6 - 5 3 - - WSW 1004,7 26 0,0
01.07.2020 13:00:00 14,4 11,8 - 8 4 - - WNW 1004,4 35 0,0
01.07.2020 12:00:00 13,6 10,4 - 11 6 - - NNW 1004,2 12 0,0
01.07.2020 11:00:00 14,5 11,2 - 8 4 - - NW 1003,7 35 0,0
01.07.2020 10:00:00 14,1 12,0 16,5 5 3 - - NW 1003,6 25 0,0
01.07.2020 09:00:00 13,6 12,5 - 5 3 - - N 1003,3 20 0,0
01.07.2020 08:00:00 12,6 12,2 - 4 2 - - WSW 1003,0 12 0,0
01.07.2020 07:00:00 12,0 11,8 - 4 2 - - NW 1002,7 14 0,0
01.07.2020 06:00:00 11,9 11,6 - 2 1 - - NW 1002,4 10 0,0
01.07.2020 05:00:00 12,0 11,8 - 2 1 - - NW 1002,4 6 0,0
01.07.2020 04:00:00 12,0 11,8 - 4 2 - - W 1002,4 9 0,0
01.07.2020 03:00:00 12,0 11,8 - 4 2 - - W 1002,4 9 0,2
01.07.2020 02:00:00 11,8 11,6 - 4 2 - - WSW 1002,5 8 0,6
01.07.2020 01:00:00 12,0 11,6 - 4 2 - - WSW 1002,8 11 0,4
01.07.2020 00:00:00 12,3 11,7 - 2 1 - - NW 1002,8 10 0,6
30.06.2020 23:00:00 12,2 11,3 - 2 1 - - NW 1002,9 15 0,8
30.06.2020 22:00:00 12,7 11,9 - 0 0 - - N 1002,6 13 0,4
30.06.2020 21:00:00 12,9 11,9 - 4 2 - - W 1002,4 21 0,4
30.06.2020 20:00:00 13,1 11,6 - 8 4 - - NW 1002,3 12 0,0
30.06.2020 19:00:00 14,6 12,3 - 4 2 - - NW 1002,1 35 0,0
30.06.2020 18:00:00 15,4 12,5 - 9 5 - - WSW 1002,2 50 0,0
30.06.2020 17:00:00 15,1 12,1 - 13 7 - - SW 1002,4 40 0,0
30.06.2020 16:00:00 15,1 11,5 - 13 7 - - WSW 1002,5 45 0,0
30.06.2020 15:00:00 15,5 11,6 - 16 9 - - WSW 1002,5 40 0,0
30.06.2020 14:00:00 15,8 12,7 - 13 7 - - WSW 1002,5 35 0,0
30.06.2020 13:00:00 14,2 12,5 - 15 8 - - WSW 1002,6 16 0,0
30.06.2020 12:00:00 13,7 12,7 - 13 7 - - SW 1002,5 50 0,0
30.06.2020 11:00:00 12,9 12,2 - 11 6 - - SW 1002,5 35 0,0
30.06.2020 10:00:00 12,4 12,0 16,4 16 9 - - SW 1002,4 40 0,0
30.06.2020 09:00:00 12,0 11,8 - 11 6 - - SW 1002,4 2,8 0,2
30.06.2020 08:00:00 11,9 11,6 - 13 7 - - SW 1002,3 6 0,0
30.06.2020 07:00:00 11,8 11,6 - 13 7 - - SW 1002,1 3,0 0,2
30.06.2020 06:00:00 11,8 11,5 - 13 7 - - SW 1002,1 7 0,0

tt = temperature
td = dewpoint
tt -20cm = temperature -20cm
ff = wind speed
fx = gusts
dd = wind direction
ppp = reduced air pressure
vv = visibility
rr = precipitation

Next stations